[[{"header":{"parameterUnit":"m.s-1","parameterCategory":1,"la1":30.2991,"la2":30.254,"lo1":-89.0895,"lo2":-89.0444,"dy":0.0017,"dx":0.0017,"nx":28,"ny":28,"refTime":"2025-06-21T03:00:00:Z","depth":0,"parameterNumber":2,"parameterNumberName":"U-component_of_WINDS"},"data":[0,0,0,0,0,0,0,0,0,0,0,0,0,0,0,0,0,0,0,0,0,0,0,0,0,0,0,0,0,0,0,0,0,0,0,0,0,0,0,0,0,0,0,0,0,0,0,0,0,0,0,0,0,0,0,0,0,0,3.3848,3.3848,0,3.3883,3.3883,3.3884,3.3785,3.3782,3.3779,3.3776,3.3815,3.3819,3.3822,0,0,0,0,0,0,0,0,0,0,0,0,0,3.3695,3.3698,3.3848,3.3848,3.3848,3.3883,3.3883,3.3884,3.3786,3.3782,3.3778,3.3775,3.3814,3.3818,3.3823,0,0,0,0,0,0,0,0,0,0,0,0,0,3.3749,3.3699,3.3847,3.3804,3.38,3.3883,3.3883,3.3884,3.3787,3.3782,3.3778,3.3773,3.3812,3.3818,3.3823,3.3951,0,0,3.3841,3.3844,0,0,0,0,0,0,0,0,3.3746,3.3755,3.381,3.3807,3.3803,3.3825,3.3844,3.3907,3.3788,3.3792,3.3776,3.3771,3.3822,3.3827,3.3844,3.3953,3.3954,3.3842,3.3845,3.3848,3.3849,0,0,0,0,0,0,0,3.3743,3.3753,3.3862,3.3811,3.3806,3.3782,3.3785,3.3855,3.3832,3.3791,3.3784,3.379,3.3819,3.3838,3.3844,3.3955,3.3842,3.3847,3.385,3.3853,3.4167,3.4172,0,0,0,0,0,0,3.3744,3.375,3.386,3.3863,3.3763,3.3789,3.3792,3.3823,3.3831,3.3828,3.3793,3.3785,3.3831,3.3837,3.3845,3.3992,3.3848,3.3853,3.3856,3.4162,3.4168,3.4173,0,0,0,0,0,0,3.3741,3.3755,3.3859,3.3805,3.3816,3.3796,3.3832,3.3826,3.3844,3.3833,3.3828,3.3817,3.3827,3.3837,3.3924,3.3992,3.3856,3.3861,3.4156,3.4164,3.4171,3.4289,0,0,0,0,0,0,3.3738,3.3755,3.3803,3.3806,3.3819,3.3938,3.3836,3.383,3.3854,3.3843,3.3854,3.3851,3.3824,3.3916,3.393,3.3997,3.3866,3.415,3.416,3.4168,3.4279,3.4299,3.4317,0,0,0,0,0,3.3732,3.3836,3.3806,3.382,3.3879,3.3943,3.395,3.3916,3.386,3.3908,3.3901,3.3851,3.3983,3.3926,3.3941,3.4011,3.4146,3.4157,3.4168,3.427,3.4295,3.4316,0,0,0,0,0,0,3.3843,3.3836,3.3802,3.391,3.3928,3.3926,3.3985,3.3945,3.3979,3.3967,3.3925,3.3928,3.4023,3.4026,3.3963,3.4133,3.4054,3.4069,3.4127,3.4151,3.417,3.4166,3.387,0,0,0,0,0,3.388,3.3931,3.3923,3.4019,3.4029,3.4006,3.4032,3.4005,3.4021,3.4028,3.4027,3.4046,3.409,3.4121,3.4162,3.4279,3.4278,3.4334,3.4353,3.4369,3.4381,3.444,3.4464,3.4209,3.4209,3.4209,0,0,3.3956,3.3959,3.3994,3.4041,3.4051,3.4105,3.4013,3.4075,3.4114,3.4038,3.4119,3.412,3.4137,3.4239,3.4284,3.4244,3.4452,3.4383,3.4396,3.4399,3.4454,3.4478,3.4499,3.4217,3.4215,3.4214,0,0,3.4123,3.4131,3.421,3.4222,3.4237,3.4221,3.424,3.4244,3.4241,3.4322,3.4265,3.4312,3.4391,3.4405,3.4422,3.4592,3.4546,3.4607,3.4705,3.4763,3.4783,3.48,3.4858,3.488,3.4619,3.462,3.462,0,3.4216,3.4295,3.4257,3.4321,3.4342,3.4275,3.4354,3.4367,3.4396,3.4412,3.4367,3.4463,3.4471,3.4573,3.4614,3.4632,3.4651,3.4604,3.4783,3.48,3.4816,3.487,3.4893,3.4627,3.4626,3.4625,3.4625,0,3.4407,3.4463,3.4525,3.4552,3.4581,3.4653,3.4624,3.4658,3.4628,3.4616,3.4698,3.4705,3.4744,3.4767,3.4739,3.4865,3.4839,3.479,3.471,3.4848,3.4898,3.4919,3.4637,3.4634,3.4632,3.463,0,0,3.4645,3.4648,3.4672,3.4682,3.4693,3.4735,3.4804,3.4841,3.4869,3.4892,3.4946,3.5014,3.4967,3.4987,3.496,3.5011,3.5141,3.4954,3.4954,3.4986,3.5277,3.5312,3.5337,3.5111,3.5115,3.5118,3.5274,0,3.4807,3.4922,3.4888,3.5004,3.5053,3.4989,3.5047,3.5061,3.5051,3.5092,3.5082,3.5129,3.5065,3.5076,3.5124,3.5115,3.5198,3.5104,3.516,3.5163,3.5155,3.5363,3.5402,3.5548,3.5294,3.5297,3.53,0,3.5011,3.5038,3.5158,3.5158,3.5178,3.5231,3.5261,3.5301,3.5314,3.5304,3.5325,3.5287,3.5353,3.5274,3.5363,3.5299,3.532,3.5319,3.5324,3.5326,3.5238,3.5369,3.5595,3.5616,3.5331,3.5328,3.5326,0,3.5168,3.5236,3.5315,3.5326,3.533,3.5368,3.5372,3.538,3.5404,3.5431,3.5445,3.548,3.5499,3.5526,3.5498,3.5444,3.5591,3.551,3.5582,3.5583,3.5614,3.5612,3.5844,3.5633,3.5633,3.5632,3.5632,0,3.5351,3.5426,3.5385,3.5434,3.5516,3.5476,3.5558,3.5554,3.5562,3.5608,3.5557,3.5601,3.5562,3.5603,3.5582,3.5657,3.5667,3.5659,3.5652,3.5662,3.5663,3.5674,3.5662,3.5638,3.5637,3.5636,3.5635,0,3.554,3.5516,3.5598,3.5593,3.5594,3.5654,3.565,3.5694,3.5681,3.574,3.5751,3.573,3.5775,3.575,3.5798,3.5783,3.588,3.5861,3.5875,3.5869,3.5941,3.5933,3.6186,3.6216,3.5988,3.5991,3.5993,0,3.5657,3.5713,3.5713,3.574,3.5746,3.579,3.5813,3.5776,3.5803,3.582,3.5862,3.5903,3.5933,3.6008,3.5997,3.6032,3.6011,3.6097,3.6016,3.6024,3.6009,3.6005,3.6009,3.6113,3.6116,3.6118,3.612,0,3.5866,3.5851,3.5885,3.5916,3.5944,3.5967,3.5985,3.601,3.5973,3.6005,3.605,3.6073,3.612,3.616,3.6189,3.6192,3.615,3.6145,3.6163,3.6173,3.6178,3.6173,3.5916,3.6139,3.6137,3.6136,3.6135,3.6134,3.6021,3.6066,3.6072,3.6112,3.6121,3.6139,3.6179,3.6169,3.6206,3.6239,3.6216,3.6268,3.6278,3.6313,3.6321,3.6361,3.6326,3.6354,3.636,3.6366,3.6374,3.6174,3.6367,3.6366,3.6366,3.6365,3.6365,0,3.6224,3.6224,3.6261,3.6287,3.6318,3.6274,3.6291,3.632,3.6366,3.6378,3.6408,3.6458,3.6496,3.6487,3.6521,3.6555,3.6536,3.6565,3.656,3.6561,3.6405,3.6385,3.6579,3.6579,3.6579,3.6579,3.6579,3.6579,3.6333,3.6406,3.6391,3.6468,3.6468,3.6517,3.653,3.6546,3.6554,3.6612,3.6643,3.6636,3.6639,3.6673,3.6705,3.6702,3.6715,3.6751,3.674,3.6594,3.6573,3.6552,3.6533,3.6755,3.6755,3.6892,3.6893,3.6894]},{"header":{"parameterUnit":"m.s-1","parameterCategory":1,"la1":30.2991,"la2":30.254,"lo1":-89.0895,"lo2":-89.0444,"dy":0.0017,"dx":0.0017,"nx":28,"ny":28,"refTime":"2025-06-21T03:00:00:Z","depth":0,"parameterNumber":3,"parameterNumberName":"V-component_of_WINDS"},"data":[0,0,0,0,0,0,0,0,0,0,0,0,0,0,0,0,0,0,0,0,0,0,0,0,0,0,0,0,0,0,0,0,0,0,0,0,0,0,0,0,0,0,0,0,0,0,0,0,0,0,0,0,0,0,0,0,0,0,0.475,0.475,0,0.4805,0.4806,0.4806,0.4814,0.4814,0.4813,0.4813,0.4872,0.4874,0.4876,0,0,0,0,0,0,0,0,0,0,0,0,0,0.4651,0.4652,0.475,0.475,0.4751,0.4805,0.4806,0.4807,0.4814,0.4814,0.4813,0.4812,0.4871,0.4873,0.4876,0,0,0,0,0,0,0,0,0,0,0,0,0,0.4699,0.4653,0.4749,0.4761,0.4763,0.4805,0.4806,0.4807,0.4814,0.4814,0.4813,0.4812,0.487,0.4873,0.4876,0.4911,0,0,0.4886,0.4887,0,0,0,0,0,0,0,0,0.4696,0.4702,0.4759,0.476,0.4762,0.4802,0.4793,0.4842,0.4815,0.4795,0.4813,0.4812,0.4849,0.4854,0.4866,0.4914,0.4916,0.4886,0.4888,0.4889,0.489,0,0,0,0,0,0,0,0.4693,0.47,0.4772,0.476,0.4762,0.4764,0.477,0.4802,0.4826,0.4797,0.4797,0.4804,0.485,0.4863,0.4868,0.4917,0.4886,0.4889,0.4891,0.4892,0.4994,0.4995,0,0,0,0,0,0,0.4687,0.4697,0.477,0.4773,0.4726,0.4766,0.4773,0.479,0.4826,0.483,0.4804,0.4804,0.4858,0.4864,0.487,0.4912,0.4889,0.4892,0.4894,0.4993,0.4994,0.4995,0,0,0,0,0,0,0.4685,0.4693,0.4768,0.4735,0.4745,0.4769,0.4788,0.4792,0.4805,0.4831,0.4836,0.4813,0.4858,0.4865,0.49,0.4914,0.4893,0.4896,0.4992,0.4994,0.4995,0.4997,0,0,0,0,0,0,0.4682,0.4692,0.4706,0.4736,0.4747,0.4797,0.4789,0.4793,0.481,0.481,0.4841,0.4845,0.4858,0.4895,0.4903,0.4918,0.4899,0.4991,0.4993,0.4995,0.4996,0.4998,0.5,0,0,0,0,0,0.4678,0.4705,0.4707,0.4715,0.4764,0.4798,0.4804,0.4817,0.4811,0.4825,0.4841,0.4844,0.4911,0.4899,0.4908,0.4924,0.499,0.4992,0.4994,0.4995,0.4998,0.5,0,0,0,0,0,0,0.4678,0.471,0.4711,0.4749,0.477,0.4799,0.4817,0.482,0.4845,0.4844,0.486,0.4867,0.4901,0.4916,0.4902,0.4958,0.495,0.4954,0.4947,0.495,0.4952,0.4948,0.4901,0,0,0,0,0,0.4682,0.4707,0.4733,0.4763,0.4774,0.4793,0.4809,0.4817,0.484,0.485,0.4869,0.4892,0.4918,0.4935,0.496,0.4997,0.5004,0.5012,0.5015,0.5016,0.502,0.5039,0.5043,0.5002,0.5002,0.5002,0,0,0.4692,0.4712,0.4726,0.4764,0.4781,0.4806,0.4801,0.4828,0.4847,0.4854,0.4888,0.4902,0.4929,0.4964,0.4981,0.4978,0.5032,0.5019,0.502,0.5022,0.5041,0.5045,0.5048,0.5003,0.5003,0.5003,0,0,0.4721,0.4739,0.4765,0.4783,0.4809,0.4821,0.4827,0.4855,0.4865,0.4898,0.4904,0.4926,0.4971,0.4989,0.5004,0.5037,0.5041,0.5045,0.5057,0.5076,0.5079,0.5082,0.5093,0.5097,0.5048,0.5048,0.5048,0,0.473,0.4767,0.4779,0.4805,0.4821,0.4827,0.4853,0.487,0.4903,0.4914,0.491,0.4964,0.4983,0.5022,0.503,0.5042,0.5049,0.5042,0.5077,0.508,0.5083,0.5094,0.5098,0.5049,0.5049,0.5049,0.5049,0,0.4776,0.4801,0.4819,0.485,0.4868,0.4894,0.491,0.4926,0.4932,0.4945,0.4978,0.5,0.5029,0.5039,0.5046,0.5079,0.5075,0.5074,0.5066,0.5087,0.5098,0.5102,0.5049,0.5049,0.5049,0.5049,0,0,0.4809,0.4843,0.485,0.4863,0.4891,0.4911,0.4937,0.4965,0.4978,0.5,0.5022,0.5059,0.5057,0.5074,0.5082,0.5098,0.5122,0.5095,0.5096,0.5099,0.5158,0.5159,0.5164,0.5124,0.5125,0.5125,0.5156,0,0.4841,0.4887,0.4897,0.4937,0.496,0.4964,0.4987,0.5006,0.5018,0.504,0.5053,0.5078,0.5074,0.5084,0.51,0.5116,0.5134,0.5114,0.5145,0.5145,0.5138,0.517,0.5171,0.5199,0.516,0.5161,0.5161,0,0.4886,0.4907,0.4949,0.4972,0.4982,0.5002,0.5027,0.5047,0.5069,0.5076,0.5094,0.51,0.5127,0.5117,0.5153,0.5139,0.5152,0.5161,0.5162,0.5166,0.5155,0.5174,0.5209,0.5212,0.5168,0.5168,0.5167,0,0.4905,0.4944,0.4974,0.4985,0.5013,0.5026,0.5039,0.506,0.5075,0.5096,0.5106,0.5131,0.5145,0.5163,0.5176,0.5168,0.5211,0.5203,0.5218,0.5218,0.5228,0.5227,0.5264,0.5236,0.5236,0.5236,0.5235,0,0.494,0.4965,0.4982,0.5,0.5028,0.5039,0.5066,0.5079,0.5097,0.5117,0.5123,0.5142,0.5157,0.5178,0.5188,0.5216,0.5222,0.5229,0.5231,0.5228,0.5227,0.5238,0.5236,0.5237,0.5236,0.5236,0.5236,0,0.4967,0.4979,0.5011,0.5034,0.504,0.506,0.5079,0.5097,0.5108,0.5133,0.514,0.5158,0.5182,0.5196,0.5228,0.5234,0.5266,0.5267,0.5258,0.5259,0.5273,0.5272,0.5319,0.5325,0.5292,0.5293,0.5293,0,0.4989,0.5008,0.5032,0.5045,0.5057,0.5079,0.5094,0.5105,0.512,0.5145,0.5159,0.5184,0.5204,0.5243,0.5259,0.5283,0.5285,0.53,0.5289,0.5285,0.5285,0.5283,0.5285,0.5302,0.5302,0.5302,0.5303,0,0.5026,0.503,0.5051,0.5073,0.509,0.5109,0.5127,0.5138,0.5152,0.5168,0.5193,0.5208,0.5239,0.5264,0.5288,0.5301,0.5304,0.5306,0.531,0.5308,0.5302,0.5304,0.5263,0.5305,0.5305,0.5304,0.5304,0.5304,0.505,0.5067,0.5086,0.5108,0.5122,0.5139,0.5155,0.5168,0.5188,0.5214,0.5219,0.5244,0.5264,0.5297,0.531,0.533,0.5327,0.5335,0.5336,0.5338,0.5338,0.5298,0.5335,0.5335,0.5335,0.5335,0.5335,0,0.5087,0.5099,0.5119,0.5144,0.5161,0.5161,0.518,0.5195,0.5217,0.5234,0.5254,0.5281,0.5304,0.532,0.5344,0.5357,0.5358,0.5362,0.5362,0.5364,0.5339,0.5333,0.536,0.536,0.536,0.536,0.536,0.536,0.5109,0.5136,0.5142,0.5176,0.5188,0.5212,0.5223,0.5238,0.5252,0.5282,0.53,0.531,0.5327,0.5351,0.5372,0.5376,0.5384,0.5388,0.5392,0.5369,0.5366,0.5364,0.5357,0.539,0.539,0.5415,0.5416,0.5416]}]]